Location: Cowley
(49.5667°N, 114.0667°W)
Time: 11:08:56
(UTC+00:00)

Envisat - Pass Details

Date: 06 December 2021
Orbit: 764 x 766 km, 98.2° (Epoch: 25 January)

Event Time Altitude Azimuth Distance (km) Brightness Sun altitude
Rises 10:58:34 0° 33° (NNE) 3,245 6.8 -40.8°
Reaches altitude 10° 11:03:09 10° 71° (ENE) 2,310 6.1 -40.1°
Maximum altitude 11:04:15 11° 84° (E) 2,263 6.1 -39.9°
Drops below altitude 10° 11:05:22 10° 96° (E) 2,305 6.1 -39.8°
Sets 11:09:54 0° 135° (SE) 3,223 6.6 -39.1°
